Hlavní strana
METAR-TAF:

METAR-TAF

Letiště :

Pikeville, Kentucky, Spojené státy americké

zeměpisná šířka: 37-33-42N, zeměpisná délka: 082-33-59W, výška: 449 m

Aktuální stav počasí

Zpráva byla vytvořena před 32 minutami, v 04:15 UTC
Jižní vítr 3 kt
Teplota 7°C
Vlhkost vzduchu 81%
Tlak 1012 hPa
Viditelnost: 16.1 km
Polojasno ve výšce 6500 ft

METAR: KPBX 250415Z AUTO 18003KT 10SM SCT065 07/04 A2988 RMK AO2 T00670040

Čas: 23:47 (04:47 UTC)


TAF: chybějící

Stav a předpovědi počasí z více než 4 000 letišť (zprávy METAR a TAF).

Červené a žluté tečky na mapě představují dostupné meteorologické stanice.

Když kurzor umístíte na tečku, zobrazí se název stanice.

Pak kliknutím zobrazíte stav a předpověď počasí.

Chcete-li změnit mapu, kliknutím na zelené tlačítko se znaménkem +mapu přiblížíte, kliknutím na zelené tlačítko se znaménkem – mapu oddálíte a kliknutím na zelené šipky přejdete na sousední mapy.


METAR-TAF: